Weather History for Seward, AK

Change the Weather History Date:

Wednesday, April 10, 2013

  Actual Average Record
Temperature  
Mean Temperature 20 °F -  
Max Temperature 25 °F 41 °F 57 °F (1997)
Min Temperature 15 °F 30 °F 12 °F (1985)
Degree Days  
Heating Degree Days 45    
Moisture  
Dew Point 0 °F    
Average Humidity 43    
Maximum Humidity 52    
Minimum Humidity 32    
Precipitation  
Precipitation 0.00 in - - ()
Sea Level Pressure  
Sea Level Pressure 29.73 in    
Wind  
Wind Speed 12 mph (NNW)    
Max Wind Speed 18 mph    
Max Gust Speed 25 mph    
Visibility 10 miles    
Events      
Averages and records for this station are not official NWS values.
T = Trace of Precipitation, MM = Missing Value Source: NWS Daily Summary

Daily Weather History Graph

Daily Weather History Graph

Search for Another Location

Airport:

Trip Planner

Search our weather history database for the weather conditions in past years. The results will help you decide how hot, cold, wet, or windy it might be!

Date:

Astronomy

Apr. 10, 2013 Rise Set
Actual Time 6:54 AM AKDT 9:05 PM AKDT
Civil Twilight 6:09 AM AKDT 9:50 PM AKDT
Nautical Twilight 5:10 AM AKDT 10:49 PM AKDT
Astronomical Twilight 3:54 AM AKDT 12:07 AM AKDT
Moon 6:46 AM AKDT (4/10) 10:10 PM AKDT (4/10)
Length of Visible Light 15h 41m
Length of Day
14h 11m
New Moon, 0% of the Moon is Illuminated
Apr 10
New Moon
Apr 18
First Quarter
Apr 25
Full
May 2
Last Quarter
May 9
New

Hourly Weather History & Observations

Time (AKDT) Temp. Windchill Dew Point Humidity Pressure Visibility Wind Dir Wind Speed Gust Speed Precip Events Conditions
12:53 AM 19.9 °F 6.7 °F 5.0 °F 52% 29.46 in 10.0 mi NNW 13.8 mph 24.2 mph N/A   Overcast
1:53 AM 19.9 °F 7.9 °F 3.9 °F 50% 29.49 in 10.0 mi NW 11.5 mph 23.0 mph N/A   Overcast
2:53 AM 19.0 °F 3.6 °F 1.0 °F 46% 29.52 in 10.0 mi NW 18.4 mph 25.3 mph N/A   Partly Cloudy
3:53 AM 18.0 °F 4.2 °F 1.0 °F 48% 29.55 in 10.0 mi NNW 13.8 mph 20.7 mph N/A   Scattered Clouds
4:53 AM 18.0 °F 3.6 °F 1.0 °F 48% 29.58 in 10.0 mi NW 15.0 mph 20.7 mph N/A   Scattered Clouds
5:53 AM 17.1 °F 1.5 °F 1.0 °F 50% 29.61 in 10.0 mi NNW 17.3 mph 23.0 mph N/A   Overcast
6:53 AM 17.1 °F 5.0 °F 1.0 °F 50% 29.64 in 10.0 mi North 10.4 mph 20.7 mph N/A   Mostly Cloudy
7:53 AM 16.0 °F 1.1 °F 1.0 °F 52% 29.66 in 10.0 mi North 15.0 mph 21.9 mph N/A   Mostly Cloudy
8:53 AM 18.0 °F 4.8 °F 3.0 °F 52% 29.68 in 10.0 mi North 12.7 mph 17.3 mph N/A   Clear
10:53 AM 19.9 °F 10.1 °F -0.0 °F 42% 29.71 in 10.0 mi NNW 8.1 mph 17.3 mph N/A   Clear
11:53 AM 21.0 °F 8.6 °F -0.0 °F 40% 29.73 in 10.0 mi NNW 12.7 mph 18.4 mph N/A   Clear
12:53 PM 21.9 °F 11.0 °F -0.0 °F 38% 29.75 in 10.0 mi NW 10.4 mph 18.4 mph N/A   Clear
1:53 PM 23.0 °F 12.4 °F -0.9 °F 35% 29.77 in 10.0 mi NW 10.4 mph - N/A   Clear
2:53 PM 24.1 °F 13.1 °F -0.9 °F 34% 29.79 in 10.0 mi NW 11.5 mph - N/A   Clear
3:53 PM 24.1 °F 13.7 °F -2.0 °F 32% 29.80 in 10.0 mi WNW 10.4 mph - N/A   Clear
4:53 PM 24.1 °F 14.4 °F -0.9 °F 34% 29.81 in 10.0 mi NW 9.2 mph - N/A   Clear
5:53 PM 24.1 °F 13.1 °F -0.0 °F 35% 29.83 in 10.0 mi WNW 11.5 mph - N/A   Clear
6:53 PM 23.0 °F 12.4 °F -0.0 °F 37% 29.85 in 10.0 mi NNW 10.4 mph - N/A   Clear
7:53 PM 21.0 °F 12.4 °F -2.0 °F 36% 29.86 in 10.0 mi NW 6.9 mph - N/A   Clear
8:53 PM 21.0 °F 11.4 °F -2.0 °F 36% 29.88 in 10.0 mi North 8.1 mph - N/A   Clear
9:53 PM 19.9 °F 8.6 °F -2.0 °F 38% 29.91 in 10.0 mi NNE 10.4 mph - N/A   Clear
10:53 PM 17.1 °F 6.6 °F -0.0 °F 47% 29.93 in 10.0 mi NE 8.1 mph - N/A   Partly Cloudy
11:53 PM 15.1 °F 5.2 °F -0.9 °F 49% 29.94 in 10.0 mi North 6.9 mph - N/A   Clear